| time (UTC) | temp F | wind direction | speed knots | gust knots | rain 1hr in | rain 24hr in | rain mn in | humidity % | barometer mb |
| 20260507130038 | 40 | 294 | 0.9 | 6.1 | 0.00 | 0.05 | 0.01 | 92 | 1012.4 |
| 20260507124538 | 39 | 0 | 0.0 | 2.6 | 0.00 | 0.07 | 0.01 | 92 | 1012.4 |
| 20260507123036 | 39 | 20 | 0.0 | 1.7 | 0.00 | 0.07 | 0.01 | 91 | 1012.3 |
| 20260507121540 | 39 | 355 | 0.0 | 3.5 | 0.00 | 0.07 | 0.01 | 91 | 1012.2 |
| 20260507120039 | 40 | 360 | 0.0 | 0.9 | 0.00 | 0.07 | 0.01 | 91 | 1012.1 |
| 20260507114538 | 39 | 0 | 0.0 | 0.0 | 0.00 | 0.10 | 0.01 | 92 | 1012.0 |
| 20260507113040 | 38 | 0 | 0.0 | 0.0 | 0.00 | 0.10 | 0.01 | 92 | 1011.9 |
| 20260507111541 | 37 | 0 | 0.0 | 0.0 | 0.00 | 0.10 | 0.01 | 93 | 1011.9 |
| 20260507110037 | 36 | 0 | 0.0 | 0.0 | 0.00 | 0.10 | 0.01 | 92 | 1011.7 |
| 20260507104541 | 36 | 0 | 0.0 | 1.7 | 0.00 | 0.15 | 0.01 | 92 | 1011.4 |
| 20260507103039 | 35 | 0 | 0.0 | 1.7 | 0.00 | 0.15 | 0.01 | 93 | 1011.5 |
| 20260507101557 | 34 | 199 | 0.9 | 2.6 | 0.00 | 0.15 | 0.01 | 93 | 1011.5 |
| 20260507100038 | 34 | 0 | 0.0 | 0.0 | 0.00 | 0.15 | 0.01 | 92 | 1011.5 |
| 20260507094541 | 35 | 0 | 0.0 | 0.9 | 0.00 | 0.27 | 0.01 | 93 | 1011.2 |
| 20260507093042 | 35 | 215 | 0.0 | 1.7 | 0.01 | 0.27 | 0.01 | 92 | 1011.5 |
| 20260507091553 | 36 | 0 | 0.0 | 2.6 | 0.01 | 0.27 | 0.01 | 93 | 1011.6 |
| 20260507090051 | 36 | 220 | 0.0 | 2.6 | 0.01 | 0.27 | 0.01 | 93 | 1011.5 |
| 20260507084538 | 36 | 0 | 0.0 | 2.6 | 0.01 | 0.33 | 0.01 | 93 | 1011.3 |
| 20260507083041 | 36 | 0 | 0.0 | 0.0 | 0.00 | 0.32 | 0.00 | 93 | 1011.4 |
| 20260507081550 | 36 | 0 | 0.0 | 0.0 | 0.00 | 0.32 | 0.00 | 92 | 1011.4 |
| 20260507080037 | 37 | 0 | 0.0 | 1.7 | 0.00 | 0.32 | 0.00 | 92 | 1011.5 |
| 20260507074542 | 38 | 0 | 0.0 | 2.6 | 0.00 | 0.42 | 0.00 | 92 | 1011.3 |
| 20260507073054 | 38 | 0 | 0.0 | 2.6 | 0.00 | 0.42 | 0.00 | 92 | 1011.6 |
| 20260507071538 | 38 | 214 | 0.9 | 2.6 | 0.00 | 0.42 | 0.00 | 93 | 1011.7 |
| 20260507070058 | 39 | 0 | 0.0 | 1.7 | 0.00 | 0.42 | 0.00 | 93 | 1011.8 |
| 20260507064543 | 39 | 196 | 0.0 | 2.6 | 0.00 | 0.58 | 0.00 | 93 | 1011.7 |
| 20260507063037 | 39 | 0 | 0.0 | 0.0 | 0.00 | 0.58 | 0.00 | 92 | 1011.7 |
| 20260507061543 | 40 | 0 | 0.0 | 0.0 | 0.00 | 0.58 | 0.00 | 92 | 1011.9 |
| 20260507060037 | 40 | 0 | 0.0 | 0.0 | 0.00 | 0.58 | 0.00 | 92 | 1011.9 |
| 20260507054546 | 40 | 0 | 0.0 | 0.0 | 0.00 | 0.71 | 0.00 | 92 | 1012.1 |
| 20260507053042 | 40 | 236 | 0.0 | 2.6 | 0.00 | 0.71 | 0.00 | 92 | 1012.3 |
| 20260507051539 | 40 | 0 | 0.0 | 0.0 | 0.00 | 0.71 | 0.00 | 91 | 1012.5 |
| 20260507050037 | 40 | 0 | 0.0 | 2.6 | 0.00 | 0.71 | 0.00 | 92 | 1012.5 |
| 20260507044545 | 40 | 0 | 0.0 | 0.0 | 0.00 | 0.77 | 0.00 | 92 | 1012.6 |
| 20260507043041 | 40 | 0 | 0.0 | 1.7 | 0.00 | 0.77 | 0.00 | 92 | 1012.7 |
| 20260507041538 | 40 | 0 | 0.0 | 0.0 | 0.00 | 0.77 | 0.00 | 92 | 1012.4 |
| 20260507040038 | 40 | 0 | 0.0 | 0.0 | 0.00 | 0.77 | 0.00 | 91 | 1012.5 |
| 20260507034538 | 40 | 0 | 0.0 | 0.0 | 0.00 | 0.83 | 0.77 | 91 | 1012.2 |
| 20260507033037 | 40 | 0 | 0.0 | 0.0 | 0.00 | 0.83 | 0.77 | 91 | 1012.3 |
| 20260507031542 | 41 | 206 | 0.0 | 1.7 | 0.00 | 0.83 | 0.77 | 91 | 1012.3 |
| 20260507030041 | 41 | 0 | 0.0 | 0.9 | 0.00 | 0.83 | 0.77 | 91 | 1012.3 |
| 20260507024538 | 41 | 0 | 0.0 | 2.6 | 0.00 | 0.89 | 0.77 | 91 | 1012.0 |
| 20260507023037 | 41 | 0 | 0.0 | 3.5 | 0.00 | 0.89 | 0.77 | 91 | 1012.1 |
| 20260507021539 | 41 | 264 | 1.7 | 6.1 | 0.00 | 0.89 | 0.77 | 91 | 1012.2 |
| 20260507020040 | 41 | 0 | 0.9 | 4.3 | 0.00 | 0.89 | 0.77 | 91 | 1012.3 |
| 20260507014552 | 41 | 290 | 0.9 | 3.5 | 0.00 | 0.96 | 0.77 | 91 | 1012.5 |
| 20260507013038 | 42 | 0 | 0.0 | 3.5 | 0.00 | 0.96 | 0.77 | 90 | 1012.0 |
| 20260507011538 | 42 | 0 | 0.0 | 6.1 | 0.00 | 0.96 | 0.77 | 91 | 1012.0 |
| 20260507010038 | 42 | 296 | 0.9 | 7.0 | 0.00 | 0.96 | 0.77 | 91 | 1012.0 |
| 20260507004537 | 42 | 281 | 1.7 | 6.1 | 0.00 | 0.99 | 0.77 | 91 | 1012.0 |
| 20260507003039 | 42 | 0 | 1.7 | 9.6 | 0.00 | 0.99 | 0.77 | 91 | 1011.6 |
| 20260507001538 | 43 | 277 | 2.6 | 7.8 | 0.00 | 0.99 | 0.77 | 91 | 1011.3 |
| 20260507000042 | 43 | 288 | 1.7 | 7.0 | 0.00 | 0.99 | 0.77 | 91 | 1011.1 |
| 20260506234544 | 44 | 286 | 1.7 | 6.1 | 0.00 | 1.10 | 0.77 | 91 | 1011.2 |
| 20260506233044 | 44 | 300 | 3.5 | 9.6 | 0.00 | 1.10 | 0.77 | 90 | 1011.1 |
| 20260506231538 | 45 | 271 | 4.3 | 12.2 | 0.00 | 1.10 | 0.77 | 87 | 1010.8 |
| 20260506230039 | 46 | 317 | 4.3 | 13.0 | 0.00 | 1.10 | 0.77 | 85 | 1010.7 |
| 20260506224538 | 47 | 303 | 1.7 | 13.0 | 0.00 | 1.21 | 0.77 | 84 | 1010.3 |
| 20260506223038 | 47 | 273 | 4.3 | 9.6 | 0.00 | 1.21 | 0.77 | 84 | 1010.2 |
| 20260506221545 | 47 | 288 | 1.7 | 7.8 | 0.00 | 1.21 | 0.77 | 88 | 1009.7 |
| 20260506220038 | 47 | 213 | 0.0 | 3.5 | 0.00 | 1.21 | 0.77 | 90 | 1009.7 |
| 20260506214537 | 47 | 0 | 0.0 | 0.0 | 0.00 | 1.21 | 0.77 | 91 | 1009.6 |
| 20260506213040 | 47 | 0 | 0.0 | 0.0 | 0.00 | 1.21 | 0.77 | 92 | 1009.4 |
| 20260506211538 | 47 | 0 | 0.0 | 0.0 | 0.00 | 1.21 | 0.77 | 93 | 1009.3 |
| 20260506210038 | 47 | 0 | 0.0 | 0.0 | 0.00 | 1.21 | 0.77 | 94 | 1009.5 |
| 20260506204537 | 46 | 0 | 0.0 | 2.6 | 0.00 | 1.21 | 0.77 | 94 | 1009.6 |
| 20260506203044 | 46 | 0 | 0.0 | 0.9 | 0.00 | 1.21 | 0.77 | 95 | 1009.4 |
| 20260506201600 | 46 | 0 | 0.0 | 0.9 | 0.00 | 1.21 | 0.77 | 96 | 1009.5 |
| 20260506200040 | 45 | 0 | 0.0 | 2.6 | 0.00 | 1.21 | 0.77 | 95 | 1009.6 |
| 20260506194548 | 45 | 0 | 0.0 | 2.6 | 0.00 | 1.21 | 0.77 | 95 | 1009.7 |
| 20260506193043 | 45 | 0 | 0.0 | 2.6 | 0.00 | 1.21 | 0.77 | 95 | 1009.5 |
| 20260506191541 | 45 | 5 | 0.9 | 3.5 | 0.00 | 1.21 | 0.77 | 95 | 1009.3 |
| 20260506190037 | 44 | 360 | 0.0 | 2.6 | 0.00 | 1.21 | 0.77 | 95 | 1009.3 |
| 20260506184549 | 44 | 360 | 0.0 | 3.5 | 0.00 | 1.21 | 0.77 | 95 | 1009.4 |
| 20260506183040 | 44 | 5 | 0.0 | 2.6 | 0.00 | 1.21 | 0.77 | 95 | 1009.5 |
| 20260506181540 | 44 | 0 | 0.0 | 3.5 | 0.00 | 1.21 | 0.77 | 95 | 1009.5 |
| 20260506180038 | 44 | 0 | 0.0 | 2.6 | 0.00 | 1.21 | 0.77 | 95 | 1009.4 |
| 20260506174542 | 44 | 9 | 0.9 | 4.3 | 0.00 | 1.21 | 0.77 | 95 | 1009.3 |
| 20260506173046 | 44 | 0 | 0.0 | 2.6 | 0.00 | 1.21 | 0.77 | 95 | 1009.4 |
| 20260506171551 | 44 | 0 | 0.0 | 0.0 | 0.00 | 1.21 | 0.77 | 96 | 1009.1 |
| 20260506170040 | 43 | 0 | 0.0 | 3.5 | 0.00 | 1.21 | 0.77 | 96 | 1009.0 |
| 20260506164538 | 43 | 5 | 0.9 | 3.5 | 0.00 | 1.21 | 0.77 | 96 | 1008.8 |
| 20260506163052 | 43 | 336 | 0.0 | 3.5 | 0.00 | 1.21 | 0.77 | 96 | 1009.0 |
| 20260506161542 | 43 | 0 | 0.0 | 1.7 | 0.00 | 1.21 | 0.77 | 96 | 1008.9 |
| 20260506160037 | 43 | 0 | 0.9 | 3.5 | 0.00 | 1.21 | 0.77 | 96 | 1008.8 |
| 20260506154550 | 43 | 0 | 0.0 | 1.7 | 0.00 | 1.21 | 0.77 | 96 | 1008.9 |
| 20260506153041 | 43 | 0 | 0.0 | 0.0 | 0.01 | 1.21 | 0.77 | 96 | 1008.9 |
| 20260506151539 | 43 | 0 | 0.9 | 2.6 | 0.02 | 1.21 | 0.77 | 96 | 1008.7 |
| 20260506150039 | 43 | 0 | 0.9 | 2.6 | 0.02 | 1.21 | 0.77 | 96 | 1008.7 |
| 20260506144538 | 42 | 0 | 0.0 | 2.6 | 0.02 | 1.21 | 0.77 | 96 | 1008.5 |
| 20260506143042 | 42 | 0 | 0.0 | 0.9 | 0.02 | 1.20 | 0.76 | 96 | 1008.4 |
| 20260506141542 | 42 | 0 | 0.0 | 0.0 | 0.01 | 1.19 | 0.75 | 96 | 1008.2 |
| 20260506140047 | 42 | 56 | 0.0 | 3.5 | 0.02 | 1.19 | 0.75 | 96 | 1008.1 |
| 20260506134537 | 42 | 68 | 0.9 | 2.6 | 0.02 | 1.19 | 0.75 | 96 | 1008.1 |
| 20260506133038 | 42 | 0 | 0.0 | 3.5 | 0.02 | 1.17 | 0.74 | 96 | 1008.0 |
| 20260506131538 | 42 | 66 | 2.6 | 3.5 | 0.02 | 1.17 | 0.74 | 96 | 1008.0 |